リニア-ニート彗星

204P/LINEAR-NEAT (2001)

English version
Home page
Updated on September 15, 2008

---------------------------------------------------------------------

・ プロフィール

符号 204P/2001 TU80
発見日 2001年10月13日, 11月16日
発見光度 17.9等
発見者 Lincoln Laboratory Near-Earth Asteroid Research project, Near-Earth-Asteroid Tracking Team (Jet Propulsion Laboratory)

・ 軌道要素

Epoch 2001 Nov. 27.0 TT = JDT 2452240.5
T 2001 Dec. 10.03633 TT                                 MPC
q   1.9325186            (2000.0)            P               Q
n   0.14075415     Peri.  355.15172     -0.24675025     -0.96299813
a   3.6601193      Node   109.10241     +0.89292462     -0.26939574
e   0.4720067      Incl.    6.58683     +0.37656333     +0.00778105
P   7.00

・ 星図

・ 光度変化

        m1 = 14.0 + 5 logΔ + 10.0 log r  [  ,27]  (2002年 1月 6日〜              )
        m1 =  7.8 + 5 logΔ + 25.0 log r  [27,  ]  (              〜2002年 1月 6日)

---------------------------------------------------------------------

軌道要素はM.P.E.C. 2008-R54に掲載されたものです。
星図は StellaNavigator Ver.2.0 for Windows (アストロアーツ編著 / アスキー出版局刊) で作成したものです。
光度グラフはComet for Windowsで作成したものです。

---------------------------------------------------------------------

Copyright(C) Seiichi Yoshida (comet@aerith.net). All rights reserved.